Flag for Germany Weather past 2 weeks in Velbert, North Rhine-Westphalia, Germany

Now
75 °F

Sunny.


Feels Like: 77 °F
Forecast: 65 / 79 °F
Wind: 6 mph from Northeast

Location: Essen

Current Time: Jul 22, 2014 at 4:06:48 PM

Latest Report: Jul 22, 2014 at 3:00 PM


Visibility: 11 mi

Pressure: 30.04 "Hg

Humidity: 64%

Dew point: 62 °F

Location of VelbertLocation

Historic Weather in Velbert — Graph

°F

Velbert temperature yesterday

Maximum temperature yesterday: 69 °F (at 12:00 AM)
Minimum temperature yesterday: 65 °F (at 8:00 AM)
Average temperature yesterday: 67 °F

Past Weeks' High & Low Weather Summary

 TemperatureHumidityPressure
High92 °F (Jul 19, 5:00 PM)99% (Jul 9, 5:00 PM)30.19 "Hg (Jul 9, 5:00 PM)
Low53 °F (Jul 9, 12:00 AM)27% (Jul 19, 1:00 PM)29.65 "Hg (Jul 9, 5:00 PM)
Average69 °F75%29.93 "Hg
* Reported Jul 7 3:00 PM — Jul 22 3:00 PM, Velbert, Weather by CustomWeather, © 2014

Note: Actual official high and low records may vary slightly from our data, if they occured in-between our weather recording intervals... More about our weather records

Advertising

Velbert weather history for previous 24 hours

 ConditionsComfort  
Time TempWeatherWind HumidityBarometerVisibility
3:00 PM
Jul 22
75 °FSunny.6 mph64%30.04 "Hg11 mi
2:00 PM72 °FSunny.5 mph71%30.05 "Hg9 mi
1:00 PM70 °FSunny.5 mph75%30.05 "Hg7 mi
12:00 PM69 °FPassing clouds.5 mph78%30.04 "Hg7 mi
11:00 AM69 °FPartly sunny.5 mph79%30.03 "Hg9 mi
10:00 AM67 °FPartly sunny.3 mph83%30.03 "Hg8 mi
9:00 AM66 °FPartly sunny.5 mph85%30.02 "Hg8 mi
8:00 AM66 °FPartly sunny.5 mph88%30.00 "Hg6 mi
7:00 AM66 °FPartly sunny.3 mph96%29.99 "Hg2 mi
6:00 AM66 °FLow clouds.2 mph98%29.98 "Hg1 mi
5:00 AM67 °FLow clouds.2 mph98%29.97 "Hg1 mi
4:00 AM66 °FLow clouds.2 mph99%29.97 "Hg0 mi
3:00 AM66 °FLow clouds.2 mph99%29.97 "Hg0 mi
2:00 AM66 °FDrizzle. Low clouds.2 mph99%29.97 "Hg0 mi
1:00 AM66 °FLow clouds.2 mph99%29.96 "Hg0 mi
12:00 AM66 °FLow clouds.2 mph99%29.97 "Hg1 mi
11:00 PM
Jul 21
66 °FLow clouds.2 mph98%29.96 "Hg1 mi
10:00 PM66 °FFog.2 mph97%29.96 "Hg1 mi
9:00 PM66 °FLow clouds.3 mph97%29.94 "Hg1 mi
8:00 PM67 °FDrizzle. Low clouds.2 mph95%29.93 "Hg2 mi
7:00 PM67 °FLow clouds.3 mph95%29.92 "Hg3 mi
6:00 PM67 °FDrizzle. Low clouds.3 mph97%29.91 "Hg2 mi
5:00 PM66 °FRain. Low clouds.3 mph98%29.91 "Hg1 mi
4:00 PM65 °FDrizzle. Low clouds.3 mph96%29.91 "Hg3 mi
Weather by CustomWeather, © 2014

See weather overviewHow to use our weather pages